Yuma MCAS, AZ

10:20 AM MST on April 28, 2017 (GMT -0700)
Yuma Marine Corps Air Station

Weather History for KNYL - August, 2012

Change the Weather History Date:

Monday, August 20, 2012

  Actual Average Record
Temperature  
Mean Temperature 96 °F 94 °F  
Max Temperature 105 °F 106 °F 114 °F (1982)
Min Temperature 87 °F 82 °F 65 °F (1917)
Degree Days  
Heating Degree Days 0 0  
Month to date heating degree days 0 0  
Since 1 June heating degree days 0 0  
Since 1 July heating degree days 0 0  
Cooling Degree Days 31 29  
Month to date cooling degree days 637 592  
Year to date cooling degree days 3246 3138  
Since 1 June cooling degree days 2283 2226  
Growing Degree Days 46 (Base 50)    
Moisture  
Dew Point 69 °F    
Average Humidity 48    
Maximum Humidity 68    
Minimum Humidity 28    
Precipitation  
Precipitation 0.00 in 0.01 in 0.59 in (1987)
Month to date precipitation T 0.30  
Year to date precipitation 1.91 1.92  
Sea Level Pressure  
Sea Level Pressure 29.76 in    
Wind  
Wind Speed 11 mph (South)    
Max Wind Speed 26 mph    
Max Gust Speed 29 mph    
Visibility 10 miles    
Events      
T = Trace of Precipitation, MM = Missing Value Source: NWS Daily Summary

Daily Weather History Graph

Daily Weather History Graph

Search for Another Location

Airport or City:

Trip Planner

Search our weather history database for the weather conditions in past years. The results will help you decide how hot, cold, wet, or windy it might be!

Date:

Astronomy

Aug. 20, 2012 Rise Set
Actual Time 6:05 AM MST 7:17 PM MST
Civil Twilight 5:40 AM MST 7:42 PM MST
Nautical Twilight 5:09 AM MST 8:13 PM MST
Astronomical Twilight 4:37 AM MST 8:44 PM MST
Moon 9:16 AM MST (8/20) 9:00 PM MST (8/20)
Length of Visible Light 14h 02m
Length of Day
13h 11m
Waxing Crescent, 12% of the Moon is Illuminated
Aug 20
Waxing Crescent
Aug 24
First Quarter
Aug 31
Full
Sep 8
Last Quarter
Sep 15
New

Hourly Weather History & Observations

Time (MST) Temp. Heat Index Dew Point Humidity Pressure Visibility Wind Dir Wind Speed Gust Speed Precip Events Conditions
12:55 AM 89.1 °F 96.0 °F 72.0 °F 57% 29.75 in 10.0 mi South 5.8 mph - N/A   Scattered Clouds
1:20 AM - - - N/A% - - North - - N/A   Unknown
1:55 AM 88.0 °F 95.6 °F 73.0 °F 61% 29.74 in 10.0 mi South 6.9 mph - N/A   Scattered Clouds
2:55 AM 88.0 °F 95.6 °F 73.0 °F 61% 29.75 in 10.0 mi SSE 6.9 mph - N/A   Scattered Clouds
3:55 AM 87.1 °F 92.8 °F 71.1 °F 59% 29.75 in 10.0 mi SSE 6.9 mph - N/A   Clear
4:55 AM 87.1 °F 95.4 °F 73.9 °F 65% 29.76 in 10.0 mi SSE 12.7 mph - N/A   Clear
5:55 AM 87.1 °F 96.3 °F 75.0 °F 67% 29.78 in 10.0 mi SSE 11.5 mph - N/A   Scattered Clouds
6:55 AM 88.0 °F 94.7 °F 72.0 °F 59% 29.80 in 10.0 mi SE 8.1 mph - N/A   Scattered Clouds
7:55 AM 91.0 °F 97.6 °F 71.1 °F 52% 29.81 in 10.0 mi SSE 17.3 mph - N/A   Mostly Cloudy
8:55 AM 93.0 °F 101.9 °F 73.0 °F 52% 29.81 in 10.0 mi SSE 20.7 mph - N/A   Scattered Clouds
9:55 AM 97.0 °F 105.5 °F 72.0 °F 44% 29.81 in 10.0 mi SSE 17.3 mph - N/A   Scattered Clouds
10:00 AM - - - N/A% - - North - - N/A   Unknown
10:55 AM 100.0 °F 105.6 °F 68.0 °F 35% 29.80 in 10.0 mi South 10.4 mph - N/A   Scattered Clouds
11:55 AM 100.9 °F 104.6 °F 64.9 °F 31% 29.79 in 10.0 mi South 11.5 mph 19.6 mph N/A   Scattered Clouds
12:55 PM 102.0 °F 107.3 °F 66.9 °F 32% 29.78 in 10.0 mi South 9.2 mph 18.4 mph N/A   Scattered Clouds
1:55 PM 104.0 °F 109.6 °F 66.9 °F 30% 29.75 in 10.0 mi SSW 13.8 mph 20.7 mph N/A   Scattered Clouds
2:55 PM 105.1 °F 110.1 °F 66.0 °F 28% 29.73 in 10.0 mi South 15.0 mph 20.7 mph N/A   Mostly Cloudy
3:55 PM 104.0 °F 108.9 °F 66.0 °F 29% 29.71 in 10.0 mi SSW 13.8 mph - N/A   Mostly Cloudy
4:55 PM 104.0 °F 108.1 °F 64.9 °F 28% 29.70 in 10.0 mi SSW 16.1 mph - N/A   Mostly Cloudy
5:55 PM 100.9 °F 105.3 °F 66.0 °F 32% 29.70 in 10.0 mi South 11.5 mph - N/A   Mostly Cloudy
6:55 PM 99.0 °F 103.5 °F 66.9 °F 35% 29.70 in 10.0 mi South 11.5 mph - N/A   Mostly Cloudy
7:55 PM 96.1 °F 99.3 °F 66.0 °F 37% 29.73 in 10.0 mi South 9.2 mph - N/A   Mostly Cloudy
8:55 PM 93.9 °F 98.6 °F 68.0 °F 43% 29.75 in 10.0 mi South 9.2 mph - N/A   Mostly Cloudy
9:55 PM 93.0 °F 97.4 °F 68.0 °F 44% 29.76 in 10.0 mi South 9.2 mph - N/A   Mostly Cloudy
10:55 PM 91.0 °F 95.2 °F 68.0 °F 47% 29.76 in 10.0 mi SSE 6.9 mph - N/A   Mostly Cloudy
11:55 PM 90.0 °F 93.6 °F 68.0 °F 48% 29.75 in 10.0 mi South 5.8 mph - N/A   Mostly Cloudy